Espace membre
Imprimable
Challenges > Delhalle - Chevetogne, 05/10/2008, BEL - La Ronde des Jardins
Liste des rapports > Delhalle - 12km - Classement à l'arrivée
Recherche: Page: [1]
54 Entrées
 
Les réclamations ne sont plus acceptées, les résultats sont considérés comme définitifs.
RangNrNomAgeIOCLigueEquipeRéelTempsTkmMoy.ScrPtsLocalité
1.1765VAN DER LINDEN Paul59BELRCNAMUR51:1051:144:17 14.0527828MALONNE
2.1088BAUWIN Dominique52BELRONVAU51:2751:304:18 13.9831817DION-VALMONT
3.515GIULIANI Fernando57BELUACBOUFFIOL51:3551:434:19 13.9233812BOUFFIOULX
4.714MAILIER Christian52BELCRACESM51:5351:574:20 13.8636802ROUX
5.485ROSILLON Dominique51BELARCH52:1452:184:22 13.7738792SOREE
6.497WYNS Jos56BELHULSHEISTSE BE52:3052:344:23 13.7040784HALLAAR
7.1070CARTON Hubert52BELARCH52:5752:594:25 13.5945769SOVET
8.146VAN NEVEL Frans54BELBEHO53:0853:124:26 13.5346764BRUGGE
9.1464DESSEILLE Ernest54BEL54:4054:564:35 13.1156722WEPION
10.160RUYMEN Michel52BELACA54:5955:064:36 13.0757715SINT TRUIDEN
11.1933DE SOBRIE Herman56BELACHLKASTEEL55:0555:094:36 13.0658711VORSELAAR
12.1469QUINET J.Paul58BELFLEU55:4855:534:40 12.8866688GILLY
13.426QUINET Bernard56BELFLEU56:2656:304:43 12.7476663GILLY
14.852PEETERS Gerard55BELANTILOB57:5258:004:50 12.4187623HAMME-MILLE
15.375HERMANS Luc58BELANPCV58:1258:244:52 12.3390613LIBIN
16.745POMES Jean-Paul58BELHRC58:1958:264:53 12.3292609NOBRESSART
17.1668LUYPAERT Armand58BELGRIM58:3558:444:54 12.2697597MEISE
18.755VAN HEULENBERGHE Frank52BEL59:2559:334:58 12.09100579GENT
19.324VANDEWALLE Marc51BELJCOOSTER59:3759:444:59 12.05102573SCHELDEWINDEKE
20.579BELGEONNE Christian55BELJOGGPLUS1:00:021:00:145:02 11.95103564WEPION
21.646HUART Louis51BEL1:00:271:00:415:04 11.86105555HULDENBERG
22.1365STREBER Fernand53BELARCH1:01:091:01:205:07 11.74111535SERINCHAMPS
23.1445MARIEN Jean-Luc50BELJOGGANS1:01:341:01:345:08 11.69114524BRUXELLES
24.1417CLESEUR Claude57BELCELESTES1:01:201:01:465:09 11.66117524MALONNE
25.1389DUPUIS Benoit56BELJAMES1:01:351:02:005:10 11.61120516CORROY-LE-GRAND
26.440ETIENNE Christian57BELRCNAMUR1:02:571:03:115:16 11.40131479LEUZE-LONGCHAMPS
27.1878ROMAIN Bernard51BELJAMES1:03:251:03:325:18 11.33133469CHASTRE
28.1633JARDON Paul53BELSCBUTG1:03:341:03:485:19 11.29135464STAVELOT
29.602BURLET Pol56BEL1:03:351:03:505:20 11.28136462ROCHEFORT
30.1833TIJSKENS Wannes54BELBVAC1:04:021:04:115:21 11.22140449BERCHEM
31.790FOLIE Yvon51BEL1:04:071:04:215:22 11.19142446AWENNE (SAINT-HUBERT)
32.1004BIENFAIT Philippe52BELETETORTUES1:04:271:04:445:24 11.12150430ENGHIEN
33.1347DE CALUWE Jean-Pierre52BELSODIBURG1:04:591:05:095:26 11.05155415BRUGGE
34.2246LAHAYE Rudy54BELANTILOB1:05:001:05:155:27 11.03156413HÉVILLERS
35.33GEORGES Francois52BEL1:05:181:05:275:28 11.00157407IXELLES
36.2255LEDUC Robert51BELJCCS1:05:381:05:515:30 10.93159399GEDINNE
37.643MASSART Patrick50BELHRC1:06:131:06:275:33 10.84164383ARLON
38.1512BUSCICCHIO Eugene54BELMPW1:07:081:07:225:37 10.69167366VERVIERS
39.165COMANDINI Luciano52BELUACRRTC1:07:101:07:285:38 10.67168364MONTIGNIES-SUR-SAMBRE
40.306RODRIGUEZ Pedro50BELMPW1:07:261:07:405:39 10.64172354VERVIERS
41.308TOMBEUX Christian57BELMPW1:07:251:07:405:39 10.64173353VERVIERS
42.768MAKA Marcel53BELSERSERUNNER1:08:261:08:385:44 10.49180329TINLOT
43.249PIRSON Patrice51BELJCCS1:10:521:11:135:57 10.11194275SART-CUSTINNE
44.694DEJARDIN Gilbert52BELSPA1:11:081:11:175:57 10.10195270THEUX
45.939GORIS Leo51BEL1:11:171:11:345:58 10.06197265MEERDONK
46.1031DEWIGNE Bernard51BELGLOBTROT1:12:151:12:376:04 9.92205240CHASTRE
47.55ROBERTI DE WINGHE Max53BELLACRONVAU1:12:411:13:066:06 9.85208230ARCHENNES
48.632MAINIL Michel59BELMSF1:15:241:15:486:19 9.50219178HAINE-ST-PIERRE
49.2009PANNEELS Jean-Jacques56BELCSDYLEGE1:15:371:16:006:20 9.47221173MELLERY
50.1075HENRY Robert51BELDAMPHRC1:16:241:16:256:23 9.42225157HALANZY
51.1153MASSART Victor55BELACLO1:16:251:16:486:24 9.38228153COUILLET
52.242VAN ESPEN Michel53BELACLO1:16:421:17:006:25 9.35230146HAINE SAINT PIERRE
53.2001CARLIER Bruno50BELVELAINES1:20:401:21:046:46 8.8823786MESLIN L'EVEQUE
54.1318DE BLIECK Philippe56BEL1:23:211:23:386:59 8.6124541BRUXELLES
DNF: abandon; DSQ: disqualifié; Vitesse en km/h
Page: [1]